Date String (YYYY-MM-DD hh:mm:ss) UTC,Instrument flags,absolute air pressure of the measurement (hPa),sample flow rate (lpm),inlet stack bypass flow (lpm),air temperature of the measurement (°C),ambient temperature measured by the external sensor (°C),aerosol sample conditioner tube jacket temperature (°C),OPC LED temperature (°C),internal box temperature (°C),relative humidity of the measurement (%),span deviation,mass concentration of particles derived from Lorenz-Mie calculation of OPC scattering (μg/m³),mass concentration of particles derived from Lorenz-Mie calculation of OPC scattering (μg/m³),mass concentration of particles derived from Lorenz-Mie calculation of OPC scattering (μg/m³)
DateTimeUTC,F1_M11,P_M11,Q1_M11,Q2_M11,T1_M11,T2_M11,T3_M11,T4_M11,T5_M11,U1_M11,ZSPAN_M11,X0_M11,X2_M11,X1_M11
2023-10-10 11:00:00,SystemResetWarning,0824.3,5.00,000.00,029.1,027.6,000.0,037.6,030.7,7.6,0000.0,0008.55,0003.22,0002.77
2023-10-10 11:01:00,SystemResetWarning,0824.3,5.00,000.00,029.1,027.6,000.0,037.6,030.7,7.7,0000.0,0007.38,0003.20,0002.75
2023-10-10 11:02:00,SystemResetWarning,0824.3,5.00,000.00,029.1,027.6,000.0,037.6,030.7,7.7,0000.0,0006.63,0003.20,0002.71
2023-10-10 11:03:00,SystemResetWarning,0824.3,5.00,000.00,029.1,027.6,000.0,037.6,030.7,7.5,0000.0,0006.93,0003.24,0002.70
2023-10-10 11:04:00,SystemResetWarning,0824.3,5.00,000.00,029.1,027.6,000.0,037.6,030.7,7.6,0000.0,0007.16,0003.28,0002.69
2023-10-10 11:05:00,SystemResetWarning,0824.3,5.00,000.00,029.1,027.6,000.0,037.6,030.7,7.7,0000.0,0007.56,0003.26,0002.66
2023-10-10 11:06:00,SystemResetWarning,0824.3,5.00,000.00,029.2,027.6,000.0,037.7,030.7,7.7,0000.0,0007.62,0003.25,0002.65
2023-10-10 11:07:00,SystemResetWarning,0824.3,5.00,000.00,029.1,027.6,000.0,037.7,030.7,7.7,0000.0,0007.61,0003.25,0002.67
2023-10-10 11:08:00,SystemResetWarning,0824.3,5.00,000.00,029.1,027.6,000.0,037.6,030.7,7.6,0000.0,0007.71,0003.26,0002.69
2023-10-10 11:09:00,SystemResetWarning,0824.3,5.00,000.00,029.1,027.6,000.0,037.6,030.7,7.7,0000.0,0007.71,0003.29,0002.73
2023-10-10 11:10:00,SystemResetWarning,0824.2,5.00,000.00,029.1,027.5,000.0,037.6,030.7,7.7,0000.0,0007.66,0003.29,0002.73
2023-10-10 11:11:00,SystemResetWarning,0824.2,5.01,000.00,029.1,027.5,000.0,037.6,030.7,7.6,0000.0,0007.60,0003.28,0002.75
2023-10-10 11:12:00,SystemResetWarning,0824.1,5.01,000.00,029.1,027.5,000.0,037.6,030.7,7.7,0000.0,0007.27,0003.31,0002.75
2023-10-10 11:13:00,SystemResetWarning,0824.1,5.00,000.00,029.1,027.5,000.0,037.6,030.7,7.7,0000.0,0007.23,0003.29,0002.75
2023-10-10 11:14:00,SystemResetWarning,0824.1,5.00,000.00,029.1,027.5,000.0,037.6,030.7,7.6,0000.0,0007.42,0003.30,0002.76
2023-10-10 11:15:00,SystemResetWarning,0824.1,5.00,000.00,029.1,027.5,000.0,037.6,030.7,7.5,0000.0,0006.66,0003.24,0002.75
2023-10-10 11:16:00,SystemResetWarning,0824.1,5.00,000.00,029.1,027.5,000.0,037.6,030.7,7.5,0000.0,0006.01,0003.25,0002.74
2023-10-10 11:17:00,SystemResetWarning,0824.1,5.00,000.00,029.1,027.5,000.0,037.6,030.7,7.5,0000.0,0005.29,0003.23,0002.71
2023-10-10 11:18:00,SystemResetWarning,0824.1,5.01,000.00,029.1,027.5,000.0,037.6,030.7,7.6,0000.0,0005.22,0003.21,0002.69
2023-10-10 11:19:00,SystemResetWarning,0824.1,5.01,000.00,029.1,027.5,000.0,037.6,030.6,7.9,0000.0,0005.10,0003.20,0002.71
2023-10-10 11:20:00,SystemResetWarning,0824.1,5.00,000.00,029.1,027.4,000.0,037.6,030.6,7.8,0000.0,0004.82,0003.19,0002.75
2023-10-10 11:21:00,SystemResetWarning,0824.2,4.99,000.00,029.1,027.4,000.0,037.6,030.6,7.7,0000.0,0004.83,0003.23,0002.83
2023-10-10 11:22:00,SystemResetWarning,0824.1,5.00,000.00,029.1,027.4,000.0,037.6,030.6,7.6,0000.0,0005.33,0003.28,0002.88
2023-10-10 11:23:00,SystemResetWarning,0824.2,5.00,000.00,029.1,027.4,000.0,037.6,030.6,7.5,0000.0,0006.26,0003.30,0002.92
2023-10-10 11:24:00,SystemResetWarning,0824.2,5.00,000.00,029.0,027.4,000.0,037.6,030.6,7.5,0000.0,0006.77,0003.30,0002.95
2023-10-10 11:25:00,SystemResetWarning,0824.2,4.99,000.00,029.0,027.4,000.0,037.6,030.6,7.5,0000.0,0006.70,0003.31,0002.95
2023-10-10 11:26:00,SystemResetWarning,0824.2,5.00,000.00,029.0,027.5,000.0,037.5,030.6,7.6,0000.0,0006.97,0003.30,0002.93
2023-10-10 11:27:00,SystemResetWarning,0824.2,5.01,000.00,029.0,027.4,000.0,037.6,030.6,7.6,0000.0,0007.13,0003.37,0003.03
2023-10-10 11:28:00,SystemResetWarning,0824.2,5.00,000.00,029.0,027.4,000.0,037.6,030.6,7.6,0000.0,0007.41,0003.54,0003.24
2023-10-10 11:29:00,SystemResetWarning,0824.2,5.01,000.00,029.0,027.4,000.0,037.5,030.6,7.6,0000.0,0007.69,0003.75,0003.42
2023-10-10 11:30:00,SystemResetWarning,0824.2,5.00,000.00,029.0,027.4,000.0,037.5,030.6,7.9,0000.0,0007.92,0003.94,0003.60
2023-10-10 11:31:00,SystemResetWarning,0824.2,4.99,000.00,029.0,027.4,000.0,037.5,030.6,7.9,0000.0,0008.03,0004.04,0003.69
2023-10-10 11:32:00,SystemResetWarning,0824.2,5.00,000.00,029.0,027.4,000.0,037.5,030.6,7.9,0000.0,0008.09,0004.10,0003.75
2023-10-10 11:33:00,SystemResetWarning,0824.2,5.00,000.00,029.0,027.4,000.0,037.5,030.6,7.9,0000.0,0008.21,0004.26,0003.90
2023-10-10 11:34:00,SystemResetWarning,0824.2,5.00,000.00,029.0,027.4,000.0,037.5,030.5,7.8,0000.0,0007.92,0004.41,0004.04
2023-10-10 11:35:00,SystemResetWarning,0824.1,4.99,000.00,029.0,027.4,000.0,037.5,030.5,7.9,0000.0,0008.19,0004.57,0004.21
2023-10-10 11:36:00,SystemResetWarning,0824.1,5.00,000.00,029.0,027.4,000.0,037.5,030.5,7.8,0000.0,0008.55,0004.74,0004.40
2023-10-10 11:37:00,SystemResetWarning,0824.1,5.01,000.00,029.0,027.4,000.0,037.5,030.6,7.8,0000.0,0008.60,0004.94,0004.61
2023-10-10 11:38:00,SystemResetWarning,0824.1,5.00,000.00,029.0,027.4,000.0,037.5,030.5,7.8,0000.6,0008.71,0005.10,0004.78
2023-10-10 11:39:00,SystemResetWarning,0824.1,5.00,000.00,029.0,027.4,000.0,037.5,030.5,7.7,0000.7,0008.91,0005.13,0004.81
2023-10-10 11:40:00,SystemResetWarning,0824.1,5.01,000.00,029.0,027.4,000.0,037.5,030.5,7.7,0000.5,0009.00,0005.10,0004.82
2023-10-10 11:41:00,SystemResetWarning,0824.1,5.01,000.00,029.0,027.4,000.0,037.5,030.5,7.6,0000.0,0008.91,0005.05,0004.78
2023-10-10 11:42:00,SystemResetWarning,0824.1,5.00,000.00,029.0,027.4,000.0,037.5,030.5,7.6,0000.0,0009.09,0005.05,0004.78
2023-10-10 11:43:00,SystemResetWarning,0824.1,4.99,000.00,029.0,027.4,000.0,037.5,030.5,7.7,0000.0,0009.49,0005.07,0004.79
2023-10-10 11:44:00,SystemResetWarning,0824.1,4.99,000.00,029.0,027.3,000.0,037.5,030.5,7.7,0000.0,0009.41,0005.00,0004.74
2023-10-10 11:45:00,SystemResetWarning,0824.1,4.99,000.00,029.0,027.3,000.0,037.5,030.5,7.7,0000.0,0009.42,0004.98,0004.73
2023-10-10 11:46:00,SystemResetWarning,0824.2,5.00,000.00,029.0,027.3,000.0,037.5,030.5,7.7,0000.0,0008.90,0004.98,0004.74
2023-10-10 11:47:00,SystemResetWarning,0824.2,5.00,000.00,029.0,027.3,000.0,037.5,030.5,7.7,0000.0,0008.81,0004.99,0004.74
2023-10-10 11:48:00,SystemResetWarning,0824.2,5.00,000.00,029.0,027.3,000.0,037.5,030.5,7.7,0000.0,0009.36,0004.99,0004.74
2023-10-10 11:49:00,SystemResetWarning,0824.2,5.00,000.00,028.9,027.3,000.0,037.5,030.5,7.7,0000.0,0009.53,0004.97,0004.73
2023-10-10 11:50:00,SystemResetWarning,0824.2,5.00,000.00,028.9,027.3,000.0,037.5,030.5,7.7,0000.0,0009.63,0004.98,0004.72
2023-10-10 11:51:00,SystemResetWarning,0824.2,5.00,000.00,028.9,027.3,000.0,037.5,030.5,7.7,0000.0,0009.47,0004.99,0004.72
2023-10-10 11:52:00,SystemResetWarning,0824.1,5.01,000.00,028.9,027.3,000.0,037.5,030.5,7.7,0000.0,0009.53,0005.01,0004.72
2023-10-10 11:53:00,SystemResetWarning,0824.1,5.00,000.00,028.9,027.3,000.0,037.5,030.5,7.9,0000.0,0009.64,0005.05,0004.76
2023-10-10 11:54:00,SystemResetWarning,0824.1,5.00,000.00,028.9,027.3,000.0,037.4,030.5,7.8,0000.0,0009.29,0005.07,0004.78
2023-10-10 11:55:00,SystemResetWarning,0824.2,4.99,000.00,028.9,027.3,000.0,037.4,030.5,7.5,0000.0,0009.26,0005.10,0004.79
2023-10-10 11:56:00,SystemResetWarning,0824.1,5.00,000.00,028.9,027.3,000.0,037.4,030.5,7.5,0000.0,0009.11,0005.04,0004.74
2023-10-10 11:57:00,SystemResetWarning,0824.1,5.00,000.00,028.9,027.3,000.0,037.4,030.5,7.6,0000.0,0009.08,0004.98,0004.66
2023-10-10 11:58:00,SystemResetWarning,0824.0,4.99,000.00,028.9,027.3,000.0,037.4,030.5,7.5,0000.0,0008.90,0004.94,0004.62
2023-10-10 11:59:00,SystemResetWarning,0824.0,5.00,000.00,028.9,027.3,000.0,037.4,030.5,7.5,0000.0,0008.27,0004.92,0004.61
